Weather History for Fairfield, CA

Change the Weather History Date:

Friday, October 26, 2012

  Actual Average Record
Temperature  
Mean Temperature 60 °F -  
Max Temperature 75 °F 70 °F 93 °F (2003)
Min Temperature 45 °F 47 °F 40 °F (2010)
Degree Days  
Heating Degree Days 5    
Growing Degree Days 10 (Base 50)    
Moisture  
Dew Point 38 °F    
Average Humidity 54    
Maximum Humidity 85    
Minimum Humidity 24    
Precipitation  
Precipitation 0.00 in - - ()
Sea Level Pressure  
Sea Level Pressure 30.18 in    
Wind  
Wind Speed 3 mph (SW)    
Max Wind Speed 13 mph    
Max Gust Speed -    
Visibility 4 miles    
Events Rain    
Averages and records for this station are not official NWS values.
T = Trace of Precipitation, MM = Missing Value Source: NWS Daily Summary

Daily Weather History Graph

Daily Weather History Graph

Search for Another Location

Airport:

Trip Planner

Search our weather history database for the weather conditions in past years. The results will help you decide how hot, cold, wet, or windy it might be!

Date:

Astronomy

Oct. 26, 2012 Rise Set
Actual Time 7:28 AM PDT 6:14 PM PDT
Civil Twilight 7:01 AM PDT 6:41 PM PDT
Nautical Twilight 6:30 AM PDT 7:12 PM PDT
Astronomical Twilight 5:59 AM PDT 7:43 PM PDT
Moon 4:31 PM PDT (10/26) 4:31 AM PDT (10/26)
Length of Visible Light 11h 40m
Length of Day
10h 46m
Waxing Gibbous, 91% of the Moon is Illuminated
Oct 26
Waxing Gibbous
Oct 29
Full
Nov 6
Last Quarter
Nov 13
New
Nov 20
First Quarter

Hourly Weather History & Observations

Time (PDT) Temp. Windchill Dew Point Humidity Pressure Visibility Wind Dir Wind Speed Gust Speed Precip Events Conditions
12:02 AM 55.4 °F - 37.4 °F 51% 30.21 in 3.0 mi NNW 12.7 mph - N/A   Haze
12:55 AM 55.0 °F - 36.7 °F 50% 30.21 in 6.0 mi NW 4.6 mph - N/A   Haze
1:31 AM 55.4 °F - 35.6 °F 47% 30.21 in 2.5 mi Calm Calm - N/A   Haze
1:33 AM 55.4 °F - 35.6 °F 47% 30.21 in 2.0 mi Calm Calm - N/A   Haze
1:35 AM 55.4 °F - 35.6 °F 47% 30.20 in 1.8 mi Calm Calm - N/A   Haze
1:36 AM 55.4 °F - 35.6 °F 47% 30.20 in 2.0 mi Calm Calm - N/A   Haze
1:48 AM 53.6 °F - 37.4 °F 54% 30.20 in 1.8 mi Calm Calm - N/A   Haze
1:55 AM 53.8 °F - 37.4 °F 54% 30.21 in 1.8 mi Variable 3.5 mph - N/A   Haze
2:05 AM 55.4 °F - 35.6 °F 47% 30.21 in 1.5 mi Variable 3.5 mph - N/A   Haze
2:09 AM 55.4 °F - 37.4 °F 51% 30.21 in 1.2 mi SW 3.5 mph - N/A   Haze
2:13 AM 53.6 °F - 37.4 °F 54% 30.21 in 1.5 mi SW 3.5 mph - N/A   Haze
2:19 AM 53.6 °F - 35.6 °F 51% 30.21 in 1.8 mi Calm Calm - N/A   Haze
2:21 AM 53.6 °F - 35.6 °F 51% 30.21 in 2.0 mi Calm Calm - N/A   Haze
2:24 AM 53.6 °F - 35.6 °F 51% 30.21 in 2.5 mi Calm Calm - N/A   Haze
2:30 AM 53.6 °F - 35.6 °F 51% 30.21 in 2.0 mi Calm Calm - N/A   Haze
2:33 AM 53.6 °F - 35.6 °F 51% 30.21 in 1.8 mi WSW 3.5 mph - N/A   Haze
2:34 AM 53.6 °F - 35.6 °F 51% 30.21 in 1.5 mi SW 3.5 mph - N/A   Haze
2:37 AM 53.6 °F - 35.6 °F 51% 30.21 in 1.2 mi WSW 3.5 mph - N/A   Haze
2:55 AM 52.5 °F - 36.1 °F 54% 30.21 in 1.2 mi WSW 3.5 mph - N/A   Haze
2:58 AM 51.8 °F - 35.6 °F 54% 30.21 in 1.5 mi Calm Calm - N/A   Haze
3:00 AM 51.8 °F - 35.6 °F 54% 30.21 in 1.8 mi Calm Calm - N/A   Haze
3:05 AM 51.8 °F - 35.6 °F 54% 30.21 in 2.0 mi SW 3.5 mph - N/A   Haze
3:09 AM 51.8 °F - 35.6 °F 54% 30.21 in 1.8 mi Calm Calm - N/A   Haze
3:11 AM 51.8 °F - 35.6 °F 54% 30.20 in 2.0 mi Calm Calm - N/A   Haze
3:22 AM 50.0 °F - 37.4 °F 62% 30.20 in 2.5 mi Calm Calm - N/A   Haze
3:26 AM 50.0 °F - 37.4 °F 62% 30.20 in 3.0 mi Calm Calm - N/A   Haze
3:36 AM 50.0 °F - 35.6 °F 58% 30.20 in 2.5 mi Calm Calm - N/A   Haze
3:41 AM 51.8 °F - 35.6 °F 54% 30.20 in 2.0 mi Calm Calm - N/A   Haze
3:44 AM 51.8 °F - 35.6 °F 54% 30.20 in 1.8 mi Calm Calm - N/A   Haze
3:49 AM 50.0 °F - 37.4 °F 62% 30.20 in 1.5 mi Calm Calm - N/A   Haze
3:54 AM 50.0 °F - 35.6 °F 58% 30.20 in 1.8 mi Calm Calm - N/A   Haze
3:55 AM 50.4 °F - 36.1 °F 58% 30.20 in 1.8 mi Calm Calm - N/A   Haze
3:56 AM 50.0 °F - 35.6 °F 58% 30.20 in 2.0 mi Calm Calm - N/A   Haze
4:00 AM 51.8 °F - 35.6 °F 54% 30.20 in 2.5 mi Calm Calm - N/A   Haze
4:02 AM 51.8 °F - 37.4 °F 58% 30.20 in 3.0 mi South 3.5 mph - N/A   Haze
4:06 AM 50.0 °F - 37.4 °F 62% 30.20 in 2.5 mi SSW 3.5 mph - N/A   Haze
4:08 AM 50.0 °F - 35.6 °F 58% 30.20 in 2.0 mi SSW 3.5 mph - N/A   Haze
4:10 AM 50.0 °F - 35.6 °F 58% 30.20 in 1.8 mi SW 3.5 mph - N/A   Haze
4:12 AM 50.0 °F - 35.6 °F 58% 30.20 in 1.5 mi Calm Calm - N/A   Haze
4:15 AM 50.0 °F - 35.6 °F 58% 30.19 in 1.8 mi Calm Calm - N/A   Haze
4:18 AM 50.0 °F - 37.4 °F 62% 30.19 in 2.0 mi Calm Calm - N/A   Haze
4:22 AM 48.2 °F - 37.4 °F 66% 30.19 in 2.5 mi Calm Calm - N/A   Haze
4:23 AM 48.2 °F - 37.4 °F 66% 30.19 in 2.0 mi Calm Calm - N/A   Haze
4:31 AM 46.4 °F 45.2 °F 37.4 °F 71% 30.19 in 1.8 mi SW 3.5 mph - N/A   Haze
4:35 AM 46.4 °F 45.2 °F 37.4 °F 71% 30.19 in 1.5 mi SW 3.5 mph - N/A   Haze
4:38 AM 46.4 °F 45.2 °F 37.4 °F 71% 30.19 in 1.2 mi SW 3.5 mph - N/A   Haze
4:55 AM 47.3 °F - 38.1 °F 70% 30.20 in 1.2 mi WSW 3.5 mph - N/A   Haze
5:00 AM 48.2 °F - 39.2 °F 71% 30.20 in 1.5 mi Calm Calm - N/A   Haze
5:02 AM 48.2 °F - 37.4 °F 66% 30.19 in 1.8 mi Calm Calm - N/A   Haze
5:04 AM 48.2 °F - 37.4 °F 66% 30.20 in 2.0 mi Calm Calm - N/A   Haze
5:05 AM 48.2 °F - 37.4 °F 66% 30.20 in 2.5 mi Calm Calm - N/A   Haze
5:07 AM 48.2 °F - 37.4 °F 66% 30.20 in 3.0 mi Calm Calm - N/A   Haze
5:14 AM 48.2 °F - 37.4 °F 66% 30.20 in 2.5 mi Calm Calm - N/A   Haze
5:23 AM 48.2 °F - 39.2 °F 71% 30.20 in 2.0 mi SW 3.5 mph - N/A   Haze
5:27 AM 48.2 °F - 39.2 °F 71% 30.20 in 1.8 mi SSW 6.9 mph - N/A   Haze
5:29 AM 46.4 °F 44.3 °F 39.2 °F 76% 30.20 in 1.5 mi SW 4.6 mph - N/A   Haze
5:33 AM 46.4 °F 44.3 °F 39.2 °F 76% 30.20 in 1.2 mi SW 4.6 mph - N/A   Haze
5:55 AM 45.9 °F 42.9 °F 37.9 °F 74% 30.21 in 1.0 mi WSW 5.8 mph - N/A   Haze
6:55 AM 47.8 °F - 40.6 °F 76% 30.20 in 10.0 mi Calm Calm - N/A   Clear
7:55 AM 47.8 °F - 39.7 °F 74% 30.20 in 10.0 mi Calm Calm - N/A   Clear
8:55 AM 54.0 °F - 42.3 °F 65% 30.23 in 10.0 mi Calm Calm - N/A   Clear
9:55 AM 61.3 °F - 38.8 °F 43% 30.23 in 6.0 mi WSW 3.5 mph - N/A   Haze
10:55 AM 63.7 °F - 34.2 °F 33% 30.22 in 10.0 mi Calm Calm - N/A   Clear
11:55 AM 66.7 °F - 34.7 °F 31% 30.21 in 10.0 mi SSE 5.8 mph - N/A   Clear
12:55 PM 69.1 °F - 35.1 °F 29% 30.18 in 10.0 mi Calm Calm - N/A   Clear
1:55 PM 72.0 °F - 35.6 °F 26% 30.14 in 10.0 mi NNW 4.6 mph - N/A   Clear
2:55 PM 73.9 °F - 36.0 °F 25% 30.11 in 10.0 mi Calm Calm - N/A   Clear
3:01 PM 73.4 °F - 35.6 °F 25% 30.11 in 10.0 mi Calm Calm - N/A Rain Light Rain
3:03 PM 75.2 °F - 35.6 °F 24% 30.11 in 10.0 mi Calm Calm - N/A   Clear
3:38 PM 75.2 °F - 37.4 °F 25% 30.10 in 10.0 mi Calm Calm - N/A Rain Light Rain
3:46 PM 75.2 °F - 37.4 °F 25% 30.10 in 7.0 mi Variable 3.5 mph - N/A   Clear
3:55 PM 75.0 °F - 37.4 °F 26% 30.10 in 8.0 mi SE 4.6 mph - 0.00 in   Clear
4:12 PM 75.2 °F - 37.4 °F 25% 30.10 in 2.5 mi Variable 3.5 mph - N/A   Haze
4:14 PM 75.2 °F - 39.2 °F 27% 30.10 in 2.0 mi West 4.6 mph - N/A   Haze
4:22 PM 75.2 °F - 39.2 °F 27% 30.10 in 2.5 mi WSW 4.6 mph - N/A   Haze
4:24 PM 75.2 °F - 39.2 °F 27% 30.10 in 3.0 mi Calm Calm - N/A   Haze
4:55 PM 74.5 °F - 39.6 °F 28% 30.09 in 10.0 mi SSW 4.6 mph - N/A   Clear
5:55 PM 71.2 °F - 42.3 °F 35% 30.08 in 5.0 mi SW 4.6 mph - N/A   Haze
6:55 PM 64.6 °F - 42.1 °F 44% 30.09 in 10.0 mi Calm Calm - N/A   Clear
7:55 PM 58.8 °F - 44.1 °F 58% 30.09 in 10.0 mi SW 6.9 mph - N/A   Clear
8:55 PM 56.3 °F - 47.3 °F 72% 30.08 in 10.0 mi West 3.5 mph - N/A   Clear
9:55 PM 55.8 °F - 46.6 °F 71% 30.08 in 10.0 mi Calm Calm - N/A   Clear
10:55 PM 57.0 °F - 49.3 °F 75% 30.08 in 10.0 mi Calm Calm - N/A   Clear
11:55 PM 54.0 °F - 49.5 °F 85% 30.08 in 10.0 mi Calm Calm - N/A   Clear